Time,TemperatureF,DewpointF,PressureIn,WindDirection,WindDirectionDegrees,WindSpeedMPH,WindSpeedGustMPH,Humidity,HourlyPrecipIn,Conditions,Clouds,dailyrainin,SoftwareType,DateUTC
2013-06-28 00:00:00,72.6,71.5,29.53,WSW,257,0.0,0.0,96,2.40,,---,0.00,VWS V14.01,2013-06-28 04:00:00,
2013-06-28 00:01:00,71.9,70.8,29.53,North,359,0.3,0.3,96,2.40,,---,0.00,VWS V14.01,2013-06-28 04:01:00,
2013-06-28 00:06:00,71.4,70.2,29.53,SW,226,3.0,6.0,96,0.00,,---,0.00,VWS V14.01,2013-06-28 04:06:00,
2013-06-28 00:11:00,72.7,71.5,29.53,North,359,0.2,5.0,96,0.00,,---,0.00,VWS V14.01,2013-06-28 04:11:00,
2013-06-28 00:16:00,71.6,70.3,29.53,North,359,0.0,0.0,96,0.00,,---,0.00,VWS V14.01,2013-06-28 04:16:00,
2013-06-28 00:21:00,72.4,71.1,29.53,North,359,0.0,0.0,96,0.00,,---,0.00,VWS V14.01,2013-06-28 04:21:00,
2013-06-28 00:26:00,72.1,70.7,29.53,SSW,201,3.7,7.5,95,0.00,,---,0.00,VWS V14.01,2013-06-28 04:26:00,
2013-06-28 00:31:00,72.1,70.6,29.52,SW,222,2.7,5.3,95,45.86,,---,0.00,VWS V14.01,2013-06-28 04:31:00,
2013-06-28 00:36:00,71.8,70.3,29.52,SW,217,0.0,0.0,95,0.00,,---,0.00,VWS V14.01,2013-06-28 04:36:00,
2013-06-28 00:41:00,71.5,70.0,29.52,SW,217,0.0,0.0,95,0.00,,---,0.00,VWS V14.01,2013-06-28 04:41:00,
2013-06-28 00:46:00,71.7,70.1,29.52,SW,217,0.0,0.0,95,0.00,,---,0.00,VWS V14.01,2013-06-28 04:46:00,
2013-06-28 00:51:00,71.9,70.2,29.51,SW,217,0.0,0.0,94,0.00,,---,0.00,VWS V14.01,2013-06-28 04:51:00,
2013-06-28 00:56:00,72.6,70.6,29.51,SW,217,0.0,0.0,93,0.00,,---,0.00,VWS V14.01,2013-06-28 04:56:00,
2013-06-28 01:01:00,72.1,70.0,29.52,SW,217,0.0,0.0,93,0.00,,---,0.00,VWS V14.01,2013-06-28 05:01:00,
2013-06-28 01:06:00,72.3,70.0,29.52,SW,217,0.0,0.0,92,0.00,,---,0.00,VWS V14.01,2013-06-28 05:06:00,
2013-06-28 01:11:00,72.7,70.1,29.51,SW,217,0.0,0.0,92,0.00,,---,0.00,VWS V14.01,2013-06-28 05:11:00,
2013-06-28 01:16:00,72.9,70.2,29.51,SW,217,0.0,0.0,91,0.00,,---,0.00,VWS V14.01,2013-06-28 05:16:00,
2013-06-28 01:21:00,72.1,69.1,29.52,SW,217,0.0,0.0,90,0.00,,---,0.00,VWS V14.01,2013-06-28 05:21:00,
2013-06-28 01:26:00,72.8,69.7,29.51,SW,217,0.0,0.0,90,0.00,,---,0.00,VWS V14.01,2013-06-28 05:26:00,
2013-06-28 01:31:00,73.1,70.0,29.51,SW,217,0.0,0.0,90,99.99,,---,0.00,VWS V14.01,2013-06-28 05:31:00,
2013-06-28 01:36:00,72.2,68.9,29.51,SW,217,0.0,0.0,90,0.00,,---,0.00,VWS V14.01,2013-06-28 05:36:00,
2013-06-28 01:41:00,71.8,68.4,29.51,SW,217,0.0,0.0,89,0.00,,---,0.00,VWS V14.01,2013-06-28 05:41:00,
2013-06-28 01:46:00,71.9,68.5,29.51,SW,217,0.0,0.0,89,0.00,,---,0.00,VWS V14.01,2013-06-28 05:46:00,
2013-06-28 01:51:00,71.9,68.6,29.51,SW,217,0.0,0.0,89,0.00,,---,0.00,VWS V14.01,2013-06-28 05:51:00,
2013-06-28 01:56:00,72.4,69.1,29.51,NNE,14,0.0,0.0,89,0.00,,---,0.00,VWS V14.01,2013-06-28 05:56:00,
2013-06-28 02:01:00,72.2,69.1,29.51,SW,217,0.0,0.0,90,0.00,,---,0.00,VWS V14.01,2013-06-28 06:01:00,
2013-06-28 02:05:00,72.2,69.2,29.51,SW,217,0.0,0.0,90,0.00,,---,0.00,VWS V14.01,2013-06-28 06:05:00,
2013-06-28 02:10:00,72.2,69.3,29.50,SW,217,0.0,0.0,90,0.00,,---,0.00,VWS V14.01,2013-06-28 06:10:00,
2013-06-28 02:15:00,71.8,69.0,29.51,SW,217,0.0,0.0,91,0.00,,---,0.00,VWS V14.01,2013-06-28 06:15:00,
2013-06-28 02:20:00,73.5,70.8,29.51,SW,217,0.0,0.0,91,0.00,,---,0.00,VWS V14.01,2013-06-28 06:20:00,
2013-06-28 02:25:00,72.2,69.6,29.51,SW,217,0.0,0.0,91,0.00,,---,0.00,VWS V14.01,2013-06-28 06:25:00,
2013-06-28 02:30:00,72.5,69.9,29.50,SW,217,0.0,0.0,92,0.00,,---,0.00,VWS V14.01,2013-06-28 06:30:00,
2013-06-28 02:35:00,72.1,69.6,29.50,North,359,0.0,1.7,92,0.00,,---,0.00,VWS V14.01,2013-06-28 06:35:00,
2013-06-28 02:40:00,72.2,69.8,29.50,SSW,198,5.9,10.5,92,0.00,,---,0.00,VWS V14.01,2013-06-28 06:40:00,
2013-06-28 02:45:00,72.8,70.4,29.50,SSW,211,4.7,8.3,92,0.00,,---,0.00,VWS V14.01,2013-06-28 06:45:00,
2013-06-28 02:50:00,72.1,69.8,29.50,North,352,5.8,7.4,93,0.00,,---,0.00,VWS V14.01,2013-06-28 06:50:00,
2013-06-28 02:55:00,72.9,70.6,29.49,North,359,0.0,0.0,93,0.00,,---,0.00,VWS V14.01,2013-06-28 06:55:00,
2013-06-28 03:00:00,72.4,70.2,29.50,North,359,0.0,0.0,93,0.00,,---,0.00,VWS V14.01,2013-06-28 07:00:00,
2013-06-28 03:05:00,71.7,69.5,29.49,North,359,0.0,0.0,93,0.00,,---,0.00,VWS V14.01,2013-06-28 07:05:00,
2013-06-28 03:10:00,72.1,70.0,29.49,NNW,336,5.5,5.7,93,0.00,,---,0.00,VWS V14.01,2013-06-28 07:10:00,
2013-06-28 03:15:00,72.7,70.5,29.49,West,264,5.3,7.1,93,0.00,,---,0.00,VWS V14.01,2013-06-28 07:15:00,
2013-06-28 03:20:00,72.1,69.9,29.49,North,359,6.0,7.1,93,0.00,,---,0.00,VWS V14.01,2013-06-28 07:20:00,
2013-06-28 03:25:00,73.2,70.8,29.48,South,184,3.5,8.2,92,0.00,,---,0.00,VWS V14.01,2013-06-28 07:25:00,
2013-06-28 03:30:00,73.3,70.8,29.49,West,262,4.1,6.5,92,0.00,,---,0.00,VWS V14.01,2013-06-28 07:30:00,
2013-06-28 03:35:00,72.1,69.5,29.49,North,359,4.2,4.2,92,0.00,,---,0.00,VWS V14.01,2013-06-28 07:35:00,
2013-06-28 03:40:00,72.1,69.6,29.49,WSW,252,0.0,5.5,92,0.00,,---,0.00,VWS V14.01,2013-06-28 07:40:00,
2013-06-28 03:45:00,72.5,70.0,29.49,SW,232,3.3,9.1,92,0.00,,---,0.00,VWS V14.01,2013-06-28 07:45:00,
2013-06-28 03:50:00,71.8,69.3,29.49,West,281,6.5,6.6,92,45.87,,---,0.00,VWS V14.01,2013-06-28 07:50:00,
2013-06-28 03:55:00,72.1,69.6,29.49,SW,215,2.4,4.1,92,0.00,,---,0.00,VWS V14.01,2013-06-28 07:55:00,
2013-06-28 04:00:00,72.0,69.4,29.49,West,264,6.5,6.5,92,0.00,,---,0.00,VWS V14.01,2013-06-28 08:00:00,
2013-06-28 04:05:00,72.1,69.5,29.48,WSW,255,5.4,6.2,91,0.00,,---,0.00,VWS V14.01,2013-06-28 08:05:00,
2013-06-28 04:10:00,72.0,69.2,29.48,SW,222,4.7,10.4,91,0.00,,---,0.00,VWS V14.01,2013-06-28 08:10:00,
2013-06-28 04:15:00,72.3,69.5,29.48,SW,225,7.5,8.1,91,0.00,,---,0.00,VWS V14.01,2013-06-28 08:15:00,
2013-06-28 04:16:00,72.1,70.8,29.48,West,278,3.7,6.3,96,70.93,,---,0.00,VWS V14.01,2013-06-28 08:16:00,
2013-06-28 04:20:00,72.1,69.3,29.48,SW,236,3.5,4.4,91,0.00,,---,0.00,VWS V14.01,2013-06-28 08:20:00,
2013-06-28 04:25:00,72.1,69.3,29.48,SSW,204,3.6,5.6,91,0.00,,---,0.00,VWS V14.01,2013-06-28 08:25:00,
2013-06-28 04:30:00,72.0,69.3,29.48,SSW,194,4.8,6.3,91,0.00,,---,0.00,VWS V14.01,2013-06-28 08:30:00,
2013-06-28 04:35:00,72.6,70.1,29.48,SSW,201,8.1,8.8,92,0.00,,---,0.00,VWS V14.01,2013-06-28 08:35:00,
2013-06-28 04:40:00,71.8,69.3,29.48,SSW,204,3.9,3.9,92,0.00,,---,0.00,VWS V14.01,2013-06-28 08:40:00,
2013-06-28 04:45:00,71.6,69.4,29.48,WNW,298,3.5,3.5,93,0.00,,---,0.00,VWS V14.01,2013-06-28 08:45:00,
2013-06-28 04:50:00,71.7,69.7,29.48,East,90,0.0,0.0,93,0.00,,---,0.00,VWS V14.01,2013-06-28 08:50:00,
2013-06-28 04:55:00,72.7,70.9,29.48,NNE,15,2.4,4.1,94,0.00,,---,0.00,VWS V14.01,2013-06-28 08:55:00,
2013-06-28 05:00:00,70.7,69.0,29.48,NW,307,3.0,3.7,94,0.00,,---,0.00,VWS V14.01,2013-06-28 09:00:00,
2013-06-28 05:05:00,71.6,70.1,29.48,SSW,198,4.8,5.7,95,12.27,,---,0.00,VWS V14.01,2013-06-28 09:05:00,
2013-06-28 05:10:00,72.1,70.6,29.48,SSW,194,4.0,5.1,95,0.00,,---,0.00,VWS V14.01,2013-06-28 09:10:00,
2013-06-28 05:15:00,71.4,70.0,29.48,West,267,3.9,5.4,95,0.00,,---,0.00,VWS V14.01,2013-06-28 09:15:00,
2013-06-28 05:20:00,71.6,70.3,29.48,West,271,2.8,4.4,96,0.00,,---,0.00,VWS V14.01,2013-06-28 09:20:00,
2013-06-28 05:25:00,71.5,70.2,29.48,WSW,256,3.0,4.0,96,0.00,,---,0.00,VWS V14.01,2013-06-28 09:25:00,
2013-06-28 05:30:00,71.5,70.3,29.48,WSW,245,4.8,4.8,96,0.00,,---,0.00,VWS V14.01,2013-06-28 09:30:00,
2013-06-28 05:35:00,71.5,70.4,29.48,WNW,283,5.0,5.0,96,0.00,,---,0.00,VWS V14.01,2013-06-28 09:35:00,
2013-06-28 05:40:00,71.1,70.0,29.48,SW,214,5.5,5.5,96,0.00,,---,0.00,VWS V14.01,2013-06-28 09:40:00,
2013-06-28 05:45:00,71.6,70.6,29.48,ESE,112,3.4,3.4,96,0.00,,---,0.00,VWS V14.01,2013-06-28 09:45:00,
2013-06-28 05:50:00,71.4,70.4,29.48,SW,228,4.3,4.3,97,0.00,,---,0.00,VWS V14.01,2013-06-28 09:50:00,
2013-06-28 05:55:00,71.2,70.3,29.49,ESE,115,0.4,5.2,97,0.00,,---,0.00,VWS V14.01,2013-06-28 09:55:00,
2013-06-28 06:00:00,71.4,70.5,29.49,East,84,1.4,5.9,97,0.00,,---,0.00,VWS V14.01,2013-06-28 10:00:00,
2013-06-28 06:05:00,71.5,70.7,29.48,SW,224,5.7,5.7,97,0.00,,---,0.00,VWS V14.01,2013-06-28 10:05:00,
2013-06-28 06:10:00,70.5,69.7,29.49,North,359,2.4,2.4,97,0.00,,---,0.00,VWS V14.01,2013-06-28 10:10:00,
2013-06-28 06:15:00,71.4,70.7,29.49,SE,142,3.7,8.3,98,0.00,,---,0.00,VWS V14.01,2013-06-28 10:15:00,
2013-06-28 06:20:00,70.9,70.2,29.49,SW,225,0.0,9.1,98,0.00,,---,0.00,VWS V14.01,2013-06-28 10:20:00,
2013-06-28 06:25:00,71.6,70.9,29.49,SW,228,5.7,6.7,98,0.00,,---,0.00,VWS V14.01,2013-06-28 10:25:00,
2013-06-28 06:30:00,71.8,71.1,29.49,WSW,249,4.0,7.6,98,0.00,,---,0.00,VWS V14.01,2013-06-28 10:30:00,
2013-06-28 06:35:00,71.2,70.5,29.49,North,359,0.7,8.3,98,0.00,,---,0.00,VWS V14.01,2013-06-28 10:35:00,
2013-06-28 06:40:00,71.3,70.6,29.49,West,270,2.3,9.1,98,0.00,,---,0.00,VWS V14.01,2013-06-28 10:40:00,
2013-06-28 06:45:00,71.5,70.8,29.50,North,359,1.2,9.4,98,0.00,,---,0.00,VWS V14.01,2013-06-28 10:45:00,
2013-06-28 06:50:00,71.8,71.1,29.50,SW,231,3.0,9.8,98,0.00,,---,0.00,VWS V14.01,2013-06-28 10:50:00,
2013-06-28 06:55:00,71.7,71.0,29.50,WNW,300,9.3,9.3,98,0.00,,---,0.00,VWS V14.01,2013-06-28 10:55:00,
2013-06-28 07:00:00,71.8,71.0,29.50,West,274,3.0,6.4,97,0.00,,---,0.00,VWS V14.01,2013-06-28 11:00:00,
2013-06-28 07:05:00,71.7,70.8,29.50,North,359,0.0,0.7,97,0.00,,---,0.00,VWS V14.01,2013-06-28 11:05:00,
2013-06-28 07:10:00,71.8,70.8,29.50,WSW,248,2.9,3.4,97,0.00,,---,0.00,VWS V14.01,2013-06-28 11:10:00,
2013-06-28 07:15:00,72.3,71.3,29.50,WSW,243,2.7,4.5,97,0.00,,---,0.00,VWS V14.01,2013-06-28 11:15:00,
2013-06-28 07:20:00,71.2,70.0,29.50,West,281,6.1,6.1,96,0.00,,---,0.00,VWS V14.01,2013-06-28 11:20:00,
2013-06-28 07:25:00,72.2,70.8,29.49,North,359,9.1,9.8,95,0.00,,---,0.00,VWS V14.01,2013-06-28 11:25:00,
2013-06-28 07:30:00,72.5,71.0,29.49,South,176,3.5,8.0,95,0.00,,---,0.00,VWS V14.01,2013-06-28 11:30:00,
2013-06-28 07:35:00,72.5,70.7,29.50,South,191,6.2,7.1,94,0.00,,---,0.00,VWS V14.01,2013-06-28 11:35:00,
2013-06-28 07:40:00,73.5,71.4,29.49,SW,226,3.2,6.5,93,0.00,,---,0.00,VWS V14.01,2013-06-28 11:40:00,
2013-06-28 07:45:00,74.4,71.6,29.49,SW,224,7.9,8.8,91,0.32,,---,0.00,VWS V14.01,2013-06-28 11:45:00,
2013-06-28 07:50:00,72.9,69.6,29.49,SW,215,4.8,8.2,89,0.00,,---,0.00,VWS V14.01,2013-06-28 11:50:00,
2013-06-28 07:55:00,73.7,70.4,29.49,SW,224,4.2,4.8,89,0.00,,---,0.00,VWS V14.01,2013-06-28 11:55:00,
2013-06-28 08:00:00,73.4,69.3,29.49,SSW,208,4.8,8.6,87,0.00,,---,0.00,VWS V14.01,2013-06-28 12:00:00,
2013-06-28 08:05:00,73.6,69.4,29.49,WSW,240,5.4,6.6,87,0.00,,---,0.00,VWS V14.01,2013-06-28 12:05:00,
2013-06-28 08:10:00,73.8,69.7,29.49,WSW,240,1.6,4.6,87,71.89,,---,0.00,VWS V14.01,2013-06-28 12:10:00,
2013-06-28 08:15:00,74.0,69.7,29.49,WSW,248,7.8,7.8,86,0.00,,---,0.00,VWS V14.01,2013-06-28 12:15:00,
2013-06-28 08:20:00,73.9,68.6,29.49,SW,224,4.5,8.2,84,0.00,,---,0.00,VWS V14.01,2013-06-28 12:20:00,
2013-06-28 08:25:00,74.8,69.3,29.48,WNW,291,7.5,7.8,83,0.00,,---,0.00,VWS V14.01,2013-06-28 12:25:00,
2013-06-28 08:30:00,75.3,69.4,29.48,SE,142,1.7,10.1,82,0.00,,---,0.00,VWS V14.01,2013-06-28 12:30:00,
2013-06-28 08:35:00,74.8,68.7,29.48,SSW,205,4.3,8.3,81,0.00,,---,0.00,VWS V14.01,2013-06-28 12:35:00,
2013-06-28 08:40:00,74.6,68.4,29.47,NNW,330,3.9,6.3,81,0.00,,---,0.00,VWS V14.01,2013-06-28 12:40:00,
2013-06-28 08:45:00,74.7,68.2,29.48,NE,53,4.0,6.5,80,0.00,,---,0.00,VWS V14.01,2013-06-28 12:45:00,
2013-06-28 08:49:00,74.2,68.0,29.48,WSW,249,0.4,7.1,81,0.00,,---,0.00,VWS V14.01,2013-06-28 12:49:00,
2013-06-28 08:54:00,75.1,68.8,29.48,NW,309,4.3,10.0,81,0.00,,---,0.00,VWS V14.01,2013-06-28 12:54:00,
2013-06-28 08:59:00,75.0,67.7,29.48,WNW,298,3.8,8.0,78,0.00,,---,0.00,VWS V14.01,2013-06-28 12:59:00,
2013-06-28 09:04:00,74.3,67.2,29.47,NNE,28,2.4,4.3,78,0.00,,---,0.00,VWS V14.01,2013-06-28 13:04:00,
2013-06-28 09:09:00,75.7,68.2,29.47,WNW,298,9.0,9.0,78,0.00,,---,0.00,VWS V14.01,2013-06-28 13:09:00,
2013-06-28 09:14:00,74.3,66.7,29.47,ESE,121,2.0,6.3,77,0.00,,---,0.00,VWS V14.01,2013-06-28 13:14:00,
2013-06-28 09:19:00,75.1,67.0,29.47,NNW,340,1.8,4.4,76,0.00,,---,0.00,VWS V14.01,2013-06-28 13:19:00,
2013-06-28 09:24:00,75.1,66.7,29.47,WNW,290,9.3,9.3,75,0.00,,---,0.00,VWS V14.01,2013-06-28 13:24:00,
2013-06-28 09:29:00,75.3,67.4,29.47,WSW,250,7.9,9.1,76,0.00,,---,0.00,VWS V14.01,2013-06-28 13:29:00,
2013-06-28 09:34:00,76.3,67.8,29.47,SW,229,3.5,7.6,75,0.00,,---,0.00,VWS V14.01,2013-06-28 13:34:00,
2013-06-28 09:39:00,76.4,67.6,29.47,SW,235,5.3,7.1,74,0.00,,---,0.00,VWS V14.01,2013-06-28 13:39:00,
2013-06-28 09:44:00,75.7,66.9,29.46,NW,305,5.5,8.3,74,0.00,,---,0.00,VWS V14.01,2013-06-28 13:44:00,
2013-06-28 09:49:00,76.2,68.0,29.46,SE,142,4.0,7.8,76,0.00,,---,0.00,VWS V14.01,2013-06-28 13:49:00,
2013-06-28 09:54:00,77.7,68.0,29.46,SSW,208,6.4,9.1,72,0.00,,---,0.00,VWS V14.01,2013-06-28 13:54:00,
2013-06-28 09:59:00,76.3,65.5,29.45,SW,214,3.9,7.0,69,0.00,,---,0.00,VWS V14.01,2013-06-28 13:59:00,
2013-06-28 10:04:00,77.7,66.9,29.46,SE,143,2.4,9.4,70,0.00,,---,0.00,VWS V14.01,2013-06-28 14:04:00,
2013-06-28 10:09:00,76.0,65.2,29.46,SE,134,4.6,8.1,69,0.00,,---,0.00,VWS V14.01,2013-06-28 14:09:00,
2013-06-28 10:14:00,76.2,65.3,29.46,SSW,193,4.4,12.7,69,0.00,,---,0.00,VWS V14.01,2013-06-28 14:14:00,
2013-06-28 10:19:00,76.3,66.1,29.46,NW,318,6.8,9.8,71,0.00,,---,0.00,VWS V14.01,2013-06-28 14:19:00,
2013-06-28 10:24:00,77.0,66.8,29.46,WNW,290,7.7,14.2,71,0.00,,---,0.00,VWS V14.01,2013-06-28 14:24:00,
2013-06-28 10:29:00,76.9,66.4,29.46,SW,221,10.2,10.2,70,0.00,,---,0.00,VWS V14.01,2013-06-28 14:29:00,
2013-06-28 10:34:00,76.0,65.1,29.46,North,11,2.9,6.0,69,0.00,,---,0.00,VWS V14.01,2013-06-28 14:34:00,
2013-06-28 10:39:00,76.2,65.8,29.46,West,263,1.2,3.0,70,0.00,,---,0.00,VWS V14.01,2013-06-28 14:39:00,
2013-06-28 10:44:00,77.1,66.8,29.46,WNW,294,3.0,5.4,70,0.00,,---,0.00,VWS V14.01,2013-06-28 14:44:00,
2013-06-28 10:49:00,76.5,66.2,29.46,North,359,5.7,7.5,70,0.00,,---,0.00,VWS V14.01,2013-06-28 14:49:00,
2013-06-28 10:54:00,77.4,66.9,29.46,NW,304,4.7,5.7,70,0.00,,---,0.00,VWS V14.01,2013-06-28 14:54:00,
2013-06-28 10:59:00,77.2,66.3,29.46,WSW,253,6.4,7.7,69,0.00,,---,0.00,VWS V14.01,2013-06-28 14:59:00,
2013-06-28 11:04:00,77.4,66.7,29.47,SW,217,2.5,3.2,70,0.00,,---,0.00,VWS V14.01,2013-06-28 15:04:00,
2013-06-28 11:09:00,76.7,66.3,29.47,NNW,343,1.2,2.9,70,0.00,,---,0.00,VWS V14.01,2013-06-28 15:09:00,
2013-06-28 11:14:00,77.7,67.3,29.47,North,359,3.2,6.8,70,0.00,,---,0.00,VWS V14.01,2013-06-28 15:14:00,
2013-06-28 11:19:00,77.4,66.4,29.47,SE,134,7.2,14.4,69,0.00,,---,0.00,VWS V14.01,2013-06-28 15:19:00,
2013-06-28 11:24:00,77.9,66.1,29.48,West,276,8.3,8.3,67,0.00,,---,0.00,VWS V14.01,2013-06-28 15:24:00,
2013-06-28 11:29:00,77.4,66.5,29.48,WSW,253,5.5,5.5,69,0.00,,---,0.00,VWS V14.01,2013-06-28 15:29:00,
2013-06-28 11:34:00,78.1,66.6,29.47,West,263,8.9,8.9,68,0.00,,---,0.00,VWS V14.01,2013-06-28 15:34:00,
2013-06-28 11:39:00,77.1,65.3,29.48,NW,319,1.4,2.1,67,0.00,,---,0.00,VWS V14.01,2013-06-28 15:39:00,
2013-06-28 11:44:00,77.4,66.2,29.48,WSW,240,4.0,4.2,68,0.00,,---,0.00,VWS V14.01,2013-06-28 15:44:00,
2013-06-28 11:49:00,78.2,66.5,29.48,NW,304,4.8,6.0,67,0.00,,---,0.00,VWS V14.01,2013-06-28 15:49:00,
2013-06-28 11:54:00,78.2,66.5,29.48,West,273,4.5,6.9,67,0.00,,---,0.00,VWS V14.01,2013-06-28 15:54:00,
2013-06-28 11:59:00,78.1,65.8,29.48,NW,304,5.2,5.2,66,0.00,,---,0.00,VWS V14.01,2013-06-28 15:59:00,
2013-06-28 12:04:00,79.1,66.6,29.48,East,87,3.6,4.7,66,0.00,,---,0.00,VWS V14.01,2013-06-28 16:04:00,
2013-06-28 12:09:00,78.0,65.3,29.48,SSW,210,5.7,6.5,65,0.00,,---,0.00,VWS V14.01,2013-06-28 16:09:00,
2013-06-28 12:14:00,79.2,65.9,29.48,WSW,246,9.8,9.8,64,0.00,,---,0.00,VWS V14.01,2013-06-28 16:14:00,
2013-06-28 12:19:00,79.7,65.8,29.48,WSW,252,3.0,5.0,63,0.00,,---,0.00,VWS V14.01,2013-06-28 16:19:00,
2013-06-28 12:24:00,79.9,66.1,29.48,ESE,115,0.9,1.8,63,0.00,,---,0.00,VWS V14.01,2013-06-28 16:24:00,
2013-06-28 12:29:00,79.8,64.6,29.47,WNW,285,2.9,5.6,60,0.00,,---,0.00,VWS V14.01,2013-06-28 16:29:00,
2013-06-28 12:34:00,80.3,65.8,29.48,West,276,5.2,5.3,61,0.00,,---,0.00,VWS V14.01,2013-06-28 16:34:00,
2013-06-28 12:39:00,79.8,64.9,29.48,WSW,256,7.1,8.1,60,0.00,,---,0.00,VWS V14.01,2013-06-28 16:39:00,
2013-06-28 12:44:00,79.8,65.9,29.48,WSW,239,7.8,8.5,63,0.00,,---,0.00,VWS V14.01,2013-06-28 16:44:00,
2013-06-28 12:49:00,80.2,66.2,29.48,West,276,6.6,6.6,62,0.00,,---,0.00,VWS V14.01,2013-06-28 16:49:00,
2013-06-28 12:54:00,80.3,65.6,29.47,WNW,288,5.8,6.0,61,0.00,,---,0.00,VWS V14.01,2013-06-28 16:54:00,
2013-06-28 12:59:00,80.2,64.0,29.48,West,262,7.1,11.6,58,0.00,,---,0.00,VWS V14.01,2013-06-28 16:59:00,
2013-06-28 13:04:00,80.4,65.3,29.48,SW,217,4.8,5.3,60,0.00,,---,0.00,VWS V14.01,2013-06-28 17:04:00,
2013-06-28 13:09:00,80.4,65.5,29.47,West,276,2.1,9.9,61,73.17,,---,0.00,VWS V14.01,2013-06-28 17:09:00,
2013-06-28 13:14:00,80.4,64.6,29.48,WSW,246,5.4,5.4,59,0.00,,---,0.00,VWS V14.01,2013-06-28 17:14:00,
2013-06-28 13:19:00,80.4,65.4,29.48,SSE,167,11.1,11.1,60,0.00,,---,0.00,VWS V14.01,2013-06-28 17:19:00,
2013-06-28 13:24:00,80.3,65.6,29.47,West,271,5.4,7.9,61,0.00,,---,0.00,VWS V14.01,2013-06-28 17:24:00,
2013-06-28 13:29:00,80.2,65.1,29.47,SW,215,7.3,10.0,60,0.00,,---,0.00,VWS V14.01,2013-06-28 17:29:00,
2013-06-28 13:34:00,80.5,65.0,29.47,West,269,7.0,10.6,59,73.01,,---,0.00,VWS V14.01,2013-06-28 17:34:00,
2013-06-28 13:39:00,80.4,64.3,29.47,West,259,6.9,11.7,58,0.00,,---,0.00,VWS V14.01,2013-06-28 17:39:00,
2013-06-28 13:44:00,80.3,64.3,29.47,ESE,111,6.9,10.1,58,0.00,,---,0.00,VWS V14.01,2013-06-28 17:44:00,
2013-06-28 13:49:00,81.4,66.1,29.46,SW,214,0.4,9.9,60,0.00,,---,0.00,VWS V14.01,2013-06-28 17:49:00,
2013-06-28 13:54:00,80.1,64.8,29.46,SSW,201,5.3,10.2,60,0.00,,---,0.00,VWS V14.01,2013-06-28 17:54:00,
2013-06-28 13:59:00,80.1,64.2,29.46,SSW,194,8.3,11.4,58,0.00,,---,0.00,VWS V14.01,2013-06-28 17:59:00,
2013-06-28 14:04:00,80.0,63.8,29.46,West,280,8.3,8.3,58,0.00,,---,0.00,VWS V14.01,2013-06-28 18:04:00,
2013-06-28 14:09:00,80.5,65.1,29.45,North,359,4.2,6.3,59,0.00,,---,0.00,VWS V14.01,2013-06-28 18:09:00,
2013-06-28 14:14:00,81.4,63.8,29.45,WSW,255,7.0,9.6,55,0.00,,---,0.00,VWS V14.01,2013-06-28 18:14:00,
2013-06-28 14:19:00,81.5,63.7,29.45,WSW,250,9.3,13.4,55,0.00,,---,0.00,VWS V14.01,2013-06-28 18:19:00,
2013-06-28 14:24:00,81.3,63.3,29.45,SE,139,6.6,8.6,54,0.00,,---,0.00,VWS V14.01,2013-06-28 18:24:00,
2013-06-28 14:29:00,81.9,65.0,29.45,NNE,13,5.0,10.4,57,0.00,,---,0.00,VWS V14.01,2013-06-28 18:29:00,
2013-06-28 14:34:00,81.2,62.8,29.45,WSW,238,12.4,13.4,54,0.00,,---,0.00,VWS V14.01,2013-06-28 18:34:00,
2013-06-28 14:39:00,81.4,64.0,29.45,SW,215,3.8,4.5,56,0.00,,---,0.00,VWS V14.01,2013-06-28 18:39:00,
2013-06-28 14:44:00,81.8,64.7,29.46,SW,232,5.1,5.3,56,0.00,,---,0.00,VWS V14.01,2013-06-28 18:44:00,
2013-06-28 14:49:00,80.3,64.0,29.46,West,280,5.3,6.0,58,73.01,,---,0.00,VWS V14.01,2013-06-28 18:49:00,
2013-06-28 14:54:00,81.1,62.7,29.45,West,271,3.5,5.2,54,0.00,,---,0.00,VWS V14.01,2013-06-28 18:54:00,
2013-06-28 14:58:00,81.8,63.2,29.45,SW,235,4.7,8.1,53,0.00,,---,0.00,VWS V14.01,2013-06-28 18:58:00,
2013-06-28 15:03:00,83.4,64.8,29.45,NNE,21,1.2,4.7,54,0.00,,---,0.00,VWS V14.01,2013-06-28 19:03:00,
2013-06-28 15:08:00,82.4,63.8,29.45,South,184,5.4,5.7,53,0.00,,---,0.00,VWS V14.01,2013-06-28 19:08:00,
2013-06-28 15:13:00,83.5,63.4,29.45,SSW,205,7.3,11.7,51,0.00,,---,0.00,VWS V14.01,2013-06-28 19:13:00,
2013-06-28 15:18:00,83.7,64.8,29.44,West,273,2.9,5.5,53,0.00,,---,0.00,VWS V14.01,2013-06-28 19:18:00,
2013-06-28 15:23:00,82.4,63.5,29.44,West,259,8.3,9.0,53,0.00,,---,0.00,VWS V14.01,2013-06-28 19:23:00,
2013-06-28 15:28:00,83.2,64.4,29.44,SSW,208,4.1,4.1,53,0.00,,---,0.00,VWS V14.01,2013-06-28 19:28:00,
2013-06-28 15:33:00,83.0,63.6,29.44,West,267,10.5,10.5,52,0.00,,---,0.00,VWS V14.01,2013-06-28 19:33:00,
2013-06-28 15:38:00,83.5,62.5,29.43,SSW,211,9.3,11.2,49,0.00,,---,0.00,VWS V14.01,2013-06-28 19:38:00,
2013-06-28 15:43:00,81.9,61.5,29.43,SSW,202,5.7,10.7,50,0.00,,---,0.00,VWS V14.01,2013-06-28 19:43:00,
2013-06-28 15:48:00,82.6,62.6,29.43,SW,222,3.9,6.0,51,0.00,,---,0.00,VWS V14.01,2013-06-28 19:48:00,
2013-06-28 15:53:00,83.6,63.5,29.43,SSW,193,7.0,10.9,51,0.00,,---,0.00,VWS V14.01,2013-06-28 19:53:00,
2013-06-28 15:58:00,83.5,63.4,29.42,North,359,1.2,8.4,51,0.00,,---,0.00,VWS V14.01,2013-06-28 19:58:00,
2013-06-28 16:03:00,82.7,62.1,29.42,WSW,243,9.6,9.7,50,0.00,,---,0.00,VWS V14.01,2013-06-28 20:03:00,
2013-06-28 16:08:00,82.6,62.0,29.42,WNW,300,7.3,10.4,50,0.00,,---,0.00,VWS V14.01,2013-06-28 20:08:00,
2013-06-28 16:13:00,82.9,62.4,29.43,South,176,5.6,5.6,50,0.00,,---,0.00,VWS V14.01,2013-06-28 20:13:00,
2013-06-28 16:18:00,83.4,62.4,29.42,West,270,7.8,10.3,49,0.00,,---,0.00,VWS V14.01,2013-06-28 20:18:00,
2013-06-28 16:23:00,83.4,62.5,29.42,WSW,253,6.6,12.4,50,0.00,,---,0.00,VWS V14.01,2013-06-28 20:23:00,
2013-06-28 16:28:00,82.3,62.5,29.42,North,359,7.5,7.5,51,0.00,,---,0.00,VWS V14.01,2013-06-28 20:28:00,
2013-06-28 16:33:00,81.5,61.5,29.43,WSW,253,4.2,8.0,51,0.00,,---,0.00,VWS V14.01,2013-06-28 20:33:00,
2013-06-28 16:38:00,81.7,62.0,29.43,West,266,3.9,5.3,51,0.00,,---,0.00,VWS V14.01,2013-06-28 20:38:00,
2013-06-28 16:43:00,81.8,62.5,29.43,WSW,240,7.5,8.8,52,0.00,,---,0.00,VWS V14.01,2013-06-28 20:43:00,
2013-06-28 16:48:00,82.5,63.3,29.43,West,274,4.4,4.4,52,0.00,,---,0.00,VWS V14.01,2013-06-28 20:48:00,
2013-06-28 16:53:00,81.3,62.7,29.43,WSW,245,5.2,5.2,53,0.00,,---,0.00,VWS V14.01,2013-06-28 20:53:00,
2013-06-28 16:58:00,81.8,62.8,29.43,West,260,2.1,2.9,53,0.00,,---,0.00,VWS V14.01,2013-06-28 20:58:00,
2013-06-28 17:03:00,82.5,63.8,29.43,NW,315,1.9,2.9,53,72.53,,---,0.00,VWS V14.01,2013-06-28 21:03:00,
2013-06-28 17:08:00,82.2,63.5,29.43,NNW,338,1.6,3.9,53,0.00,,---,0.00,VWS V14.01,2013-06-28 21:08:00,
2013-06-28 17:13:00,81.0,62.2,29.43,North,359,3.4,7.8,53,0.00,,---,0.00,VWS V14.01,2013-06-28 21:13:00,
2013-06-28 17:18:00,80.9,62.6,29.43,WNW,297,3.1,3.9,54,0.00,,---,0.00,VWS V14.01,2013-06-28 21:18:00,
2013-06-28 17:23:00,81.6,63.7,29.43,East,87,4.2,4.8,55,0.00,,---,0.00,VWS V14.01,2013-06-28 21:23:00,
2013-06-28 17:28:00,81.3,63.7,29.43,WSW,245,0.7,1.5,55,0.00,,---,0.00,VWS V14.01,2013-06-28 21:28:00,
2013-06-28 17:33:00,81.4,64.0,29.43,SW,236,1.6,1.9,56,0.00,,---,0.00,VWS V14.01,2013-06-28 21:33:00,
2013-06-28 17:38:00,81.0,64.0,29.43,North,3,4.0,4.5,56,0.00,,---,0.00,VWS V14.01,2013-06-28 21:38:00,
2013-06-28 17:43:00,80.4,63.7,29.43,ESE,105,1.7,1.7,57,0.00,,---,0.00,VWS V14.01,2013-06-28 21:43:00,
2013-06-28 17:48:00,81.5,64.9,29.43,SSW,210,4.2,4.4,57,0.00,,---,0.00,VWS V14.01,2013-06-28 21:48:00,
2013-06-28 17:53:00,80.4,64.1,29.43,SW,218,0.9,1.9,58,72.69,,---,0.00,VWS V14.01,2013-06-28 21:53:00,
2013-06-28 17:58:00,80.5,64.5,29.43,WSW,249,2.1,2.4,58,0.00,,---,0.00,VWS V14.01,2013-06-28 21:58:00,
2013-06-28 18:03:00,80.2,64.3,29.42,NW,312,0.7,4.0,58,0.00,,---,0.00,VWS V14.01,2013-06-28 22:03:00,
2013-06-28 18:08:00,79.8,64.2,29.42,North,359,3.8,3.8,59,0.00,,---,0.00,VWS V14.01,2013-06-28 22:08:00,
2013-06-28 18:13:00,80.2,65.0,29.42,SW,218,2.2,4.2,60,0.00,,---,0.00,VWS V14.01,2013-06-28 22:13:00,
2013-06-28 18:18:00,80.0,64.8,29.43,East,97,2.2,4.8,60,72.85,,---,0.00,VWS V14.01,2013-06-28 22:18:00,
2013-06-28 18:23:00,78.8,64.1,29.44,North,359,1.9,3.3,61,0.00,,---,0.00,VWS V14.01,2013-06-28 22:23:00,
2013-06-28 18:28:00,79.2,64.5,29.44,SW,221,2.2,4.5,61,0.00,,---,0.00,VWS V14.01,2013-06-28 22:28:00,
2013-06-28 18:33:00,79.0,64.3,29.44,SSW,194,2.7,3.9,61,0.00,,---,0.00,VWS V14.01,2013-06-28 22:33:00,
2013-06-28 18:38:00,79.5,64.8,29.44,SW,217,3.0,3.7,61,0.00,,---,0.00,VWS V14.01,2013-06-28 22:38:00,
2013-06-28 18:43:00,80.0,65.4,29.43,ESE,110,1.1,1.4,61,72.85,,---,0.00,VWS V14.01,2013-06-28 22:43:00,
2013-06-28 18:48:00,79.1,64.5,29.44,South,179,2.9,3.2,61,0.00,,---,0.00,VWS V14.01,2013-06-28 22:48:00,
2013-06-28 18:53:00,79.8,65.2,29.44,WSW,246,3.2,4.3,61,0.00,,---,0.00,VWS V14.01,2013-06-28 22:53:00,
2013-06-28 18:58:00,79.9,65.9,29.44,SW,219,3.2,3.3,62,0.00,,---,0.00,VWS V14.01,2013-06-28 22:58:00,
2013-06-28 19:03:00,79.4,65.9,29.43,SW,231,2.1,2.4,63,0.00,,---,0.00,VWS V14.01,2013-06-28 23:03:00,
2013-06-28 19:08:00,78.8,66.0,29.43,NW,305,2.9,4.3,65,72.69,,---,0.00,VWS V14.01,2013-06-28 23:08:00,
2013-06-28 19:13:00,79.1,67.0,29.43,East,96,6.2,6.2,66,0.00,,---,0.00,VWS V14.01,2013-06-28 23:13:00,
2013-06-28 19:18:00,79.0,67.5,29.43,WNW,291,5.8,6.7,68,0.00,,---,0.00,VWS V14.01,2013-06-28 23:18:00,
2013-06-28 19:23:00,79.0,67.0,29.44,SSW,207,7.6,7.6,67,0.00,,---,0.00,VWS V14.01,2013-06-28 23:23:00,
2013-06-28 19:28:00,78.7,67.0,29.44,SW,214,2.4,3.8,67,0.00,,---,0.00,VWS V14.01,2013-06-28 23:28:00,
2013-06-28 19:33:00,79.2,67.8,29.45,North,359,2.2,3.0,68,72.85,,---,0.00,VWS V14.01,2013-06-28 23:33:00,
2013-06-28 19:38:00,78.3,67.6,29.45,WSW,256,5.5,5.8,70,0.00,,---,0.00,VWS V14.01,2013-06-28 23:38:00,
2013-06-28 19:43:00,76.8,66.7,29.45,WSW,253,6.3,8.0,71,0.00,,---,0.00,VWS V14.01,2013-06-28 23:43:00,
2013-06-28 19:48:00,75.8,66.5,29.45,WNW,285,8.9,11.8,73,0.00,,---,0.00,VWS V14.01,2013-06-28 23:48:00,
2013-06-28 19:53:00,75.6,67.0,29.46,SW,226,0.0,7.8,75,0.00,,---,0.00,VWS V14.01,2013-06-28 23:53:00,
2013-06-28 19:58:00,75.4,67.5,29.46,SSW,204,3.6,4.7,76,0.00,,---,0.00,VWS V14.01,2013-06-28 23:58:00,
2013-06-28 20:03:00,74.7,66.9,29.45,SW,225,6.3,9.3,77,0.00,,---,0.00,VWS V14.01,2013-06-29 00:03:00,
2013-06-28 20:08:00,74.6,67.6,29.45,SW,232,6.6,7.0,79,0.00,,---,0.00,VWS V14.01,2013-06-29 00:08:00,
2013-06-28 20:13:00,73.8,67.3,29.45,SW,222,4.5,5.3,80,0.00,,---,0.00,VWS V14.01,2013-06-29 00:13:00,
2013-06-28 20:18:00,72.5,66.4,29.46,SW,226,3.9,4.0,81,0.00,,---,0.00,VWS V14.01,2013-06-29 00:18:00,
2013-06-28 20:23:00,72.9,67.2,29.46,WSW,248,7.5,8.0,82,0.00,,---,0.00,VWS V14.01,2013-06-29 00:23:00,
2013-06-28 20:28:00,72.1,66.1,29.46,West,259,5.5,6.8,82,0.00,,---,0.00,VWS V14.01,2013-06-29 00:28:00,
2013-06-28 20:33:00,72.1,66.4,29.46,WNW,302,8.0,9.0,82,0.00,,---,0.00,VWS V14.01,2013-06-29 00:33:00,
2013-06-28 20:38:00,71.2,65.7,29.46,WSW,257,6.9,7.4,83,0.00,,---,0.00,VWS V14.01,2013-06-29 00:38:00,
2013-06-28 20:43:00,72.0,66.6,29.46,SW,235,5.5,12.1,83,0.00,,---,0.00,VWS V14.01,2013-06-29 00:43:00,
2013-06-28 20:48:00,71.6,65.9,29.45,NNW,328,4.8,7.1,82,0.00,,---,0.00,VWS V14.01,2013-06-29 00:48:00,
2013-06-28 20:53:00,71.4,65.7,29.45,SSW,202,4.1,5.1,82,0.00,,---,0.00,VWS V14.01,2013-06-29 00:53:00,
2013-06-28 20:58:00,70.4,64.5,29.44,WSW,257,4.8,7.2,82,0.00,,---,0.00,VWS V14.01,2013-06-29 00:58:00,
2013-06-28 21:03:00,70.3,64.6,29.44,WSW,257,3.4,6.3,82,0.00,,---,0.00,VWS V14.01,2013-06-29 01:03:00,
2013-06-28 21:08:00,71.1,65.4,29.45,South,181,11.1,12.5,82,0.00,,---,0.00,VWS V14.01,2013-06-29 01:08:00,
2013-06-28 21:13:00,69.8,63.8,29.45,NW,316,5.2,10.9,81,0.00,,---,0.00,VWS V14.01,2013-06-29 01:13:00,
2013-06-28 21:18:00,69.6,63.5,29.45,NW,316,3.9,4.8,81,0.00,,---,0.00,VWS V14.01,2013-06-29 01:18:00,
2013-06-28 21:23:00,70.3,63.6,29.45,North,359,1.1,6.4,79,0.00,,---,0.00,VWS V14.01,2013-06-29 01:23:00,
2013-06-28 21:28:00,70.5,63.9,29.46,WNW,294,3.2,6.5,80,0.00,,---,0.00,VWS V14.01,2013-06-29 01:28:00,
2013-06-28 21:33:00,70.8,64.3,29.46,West,273,5.0,10.5,80,0.00,,---,0.00,VWS V14.01,2013-06-29 01:33:00,
2013-06-28 21:38:00,70.8,64.2,29.46,WSW,250,4.3,9.3,80,0.00,,---,0.00,VWS V14.01,2013-06-29 01:38:00,
2013-06-28 21:43:00,70.9,64.2,29.46,WNW,297,3.0,9.9,80,0.00,,---,0.00,VWS V14.01,2013-06-29 01:43:00,
2013-06-28 21:48:00,70.2,63.6,29.46,SW,233,2.7,2.7,80,0.00,,---,0.00,VWS V14.01,2013-06-29 01:48:00,
2013-06-28 21:53:00,70.8,64.0,29.47,West,260,5.0,6.3,79,0.00,,---,0.00,VWS V14.01,2013-06-29 01:53:00,
2013-06-28 21:58:00,70.3,63.1,29.46,West,278,3.5,5.2,78,0.00,,---,0.00,VWS V14.01,2013-06-29 01:58:00,
2013-06-28 22:03:00,70.5,63.2,29.46,West,273,3.3,3.8,78,0.00,,---,0.00,VWS V14.01,2013-06-29 02:03:00,
2013-06-28 22:08:00,70.8,63.3,29.46,West,274,4.7,4.8,77,0.00,,---,0.00,VWS V14.01,2013-06-29 02:08:00,
2013-06-28 22:12:00,70.0,62.5,29.46,WSW,240,2.6,4.5,77,0.00,,---,0.00,VWS V14.01,2013-06-29 02:12:00,
2013-06-28 22:17:00,71.3,63.8,29.46,NNW,335,2.7,2.7,77,0.00,,---,0.00,VWS V14.01,2013-06-29 02:17:00,
2013-06-28 22:22:00,70.8,63.3,29.46,WSW,250,0.0,3.0,77,0.00,,---,0.00,VWS V14.01,2013-06-29 02:22:00,
2013-06-28 22:27:00,70.6,62.9,29.46,South,190,2.6,2.6,77,0.00,,---,0.00,VWS V14.01,2013-06-29 02:27:00,
2013-06-28 22:32:00,70.5,63.0,29.46,WSW,243,2.4,4.8,77,0.00,,---,0.00,VWS V14.01,2013-06-29 02:32:00,
2013-06-28 22:37:00,70.5,63.1,29.46,West,266,4.2,4.2,78,51.12,,---,0.00,VWS V14.01,2013-06-29 02:37:00,
2013-06-28 22:42:00,70.4,63.3,29.46,SSW,194,0.4,1.1,78,0.00,,---,0.00,VWS V14.01,2013-06-29 02:42:00,
2013-06-28 22:47:00,70.7,64.0,29.46,WSW,245,5.2,6.6,79,0.00,,---,0.00,VWS V14.01,2013-06-29 02:47:00,
2013-06-28 22:52:00,70.8,64.3,29.46,NW,312,1.2,1.4,80,0.00,,---,0.00,VWS V14.01,2013-06-29 02:52:00,
2013-06-28 22:57:00,70.5,64.2,29.46,West,278,1.6,4.2,80,0.00,,---,0.00,VWS V14.01,2013-06-29 02:57:00,
2013-06-28 23:02:00,70.5,64.3,29.46,NNE,17,5.0,5.6,81,0.00,,---,0.00,VWS V14.01,2013-06-29 03:02:00,
2013-06-28 23:07:00,70.5,64.3,29.46,North,349,3.9,4.6,81,0.00,,---,0.00,VWS V14.01,2013-06-29 03:07:00,
2013-06-28 23:12:00,70.0,63.8,29.47,NW,322,2.7,4.2,81,0.00,,---,0.00,VWS V14.01,2013-06-29 03:12:00,
2013-06-28 23:17:00,70.4,64.1,29.47,West,260,3.9,3.9,80,0.00,,---,0.00,VWS V14.01,2013-06-29 03:17:00,
2013-06-28 23:22:00,69.5,63.3,29.47,SW,217,4.2,4.7,81,0.00,,---,0.00,VWS V14.01,2013-06-29 03:22:00,
2013-06-28 23:27:00,69.7,63.7,29.46,West,273,4.0,4.0,81,0.00,,---,0.00,VWS V14.01,2013-06-29 03:27:00,
2013-06-28 23:32:00,69.9,64.0,29.46,SW,232,0.0,0.0,81,0.00,,---,0.00,VWS V14.01,2013-06-29 03:32:00,
2013-06-28 23:37:00,70.3,64.4,29.46,SW,232,0.0,0.0,82,51.12,,---,0.00,VWS V14.01,2013-06-29 03:37:00,
2013-06-28 23:42:00,70.5,64.8,29.47,WSW,240,1.6,3.5,82,0.00,,---,0.00,VWS V14.01,2013-06-29 03:42:00,
2013-06-28 23:47:00,69.8,64.2,29.46,West,262,2.4,2.4,82,0.00,,---,0.00,VWS V14.01,2013-06-29 03:47:00,
2013-06-28 23:52:00,70.3,64.9,29.46,WSW,255,0.0,0.0,83,0.00,,---,0.00,VWS V14.01,2013-06-29 03:52:00,
2013-06-28 23:57:00,69.2,64.1,29.46,NNW,336,2.8,3.4,84,0.00,,---,0.00,VWS V14.01,2013-06-29 03:57:00,